Rechercher aéroport 
image banner adimage banner ad
image banner ad

DFOB - Banfora

Situé à , Burkina Faso

ICAO - DFOB, IATA - BNR

Données fournies par Airmate  

Information générale

Coordonnées: N10°41'0" W4°43'0"
Élévation : 984 feet MSL.
 
Voir autres Aéroports à Comoe

Données opérationnelles

Accessible au public
Heure actuelle UTC:
Heure actuelle locale:
Météo à : DFOO - Bobo-Dioulasso ( 69 km )
METAR: DFOO 201500Z 30003KT 9999 FEW020 33/24 Q1012
TAF: TAF DFOO 201100Z 2012/2112 20008KT 9999 FEW020 TEMPO 2014/2022 4000 TSRA SCT020 FEW036CB
Voir NOTAMs / SUP AIP / TFR affectant cet aéroport [VIEW]
Fréquences de communication: [VIEW]

Pistes:

Coordonnées de l'aéroport

Adresse: Burkina Faso

Vue satellite de DFOB